EW6694 Weather Reports


time (UTC)temp
F
wind
direction
speed
knots
gust
knots
rain 1hr
in
rain 24hr
in
rain mn
in
humidity
%
barometer
mb
20260510204157 48 262 11.3 18.2 0.00 0.01 0.01 52 1014.8
20260510203657 48 281 10.4 18.2 0.00 0.01 0.01 52 1014.8
20260510203154 48 251 12.2 18.2 0.00 0.01 0.01 48 1014.6
20260510202655 48 274 10.4 15.6 0.00 0.01 0.01 48 1014.6
20260510202152 48 300 8.7 13.0 0.00 0.01 0.01 52 1014.4
20260510201655 48 282 7.0 16.5 0.00 0.01 0.01 57 1014.5
20260510201151 47 295 8.7 16.5 0.00 0.01 0.01 55 1014.5
20260510200651 48 274 11.3 16.5 0.00 0.01 0.01 53 1014.5
20260510200149 48 302 10.4 14.8 0.00 0.01 0.01 54 1014.5
20260510195650 48 303 7.0 13.0 0.00 0.01 0.01 58 1014.6
20260510195147 47 258 7.0 13.0 0.00 0.01 0.01 62 1014.5
20260510194648 46 295 8.7 13.0 0.00 0.01 0.01 59 1014.6
20260510194423 46 293 8.7 13.9 0.00 0.01 0.01 60 1014.5
20260510193646 45 322 10.4 13.9 0.00 0.01 0.01 60 1014.5
20260510193144 45 300 6.1 13.0 0.00 0.01 0.01 64 1014.5
20260510192645 44 307 7.8 13.9 0.00 0.01 0.01 67 1014.6
20260510192413 44 331 9.6 13.9 0.00 0.01 0.01 69 1014.5
20260510191644 44 258 6.1 13.9 0.01 0.01 0.01 69 1014.5
20260510191413 44 313 7.8 15.6 0.01 0.01 0.01 72 1014.6
20260510190642 43 309 7.8 18.2 0.01 0.01 0.01 72 1014.6
20260510190142 42 323 11.3 18.2 0.01 0.01 0.01 75 1014.6
20260510185639 42 315 7.8 21.7 0.01 0.01 0.01 75 1014.6
20260510185138 42 329 11.3 21.7 0.01 0.01 0.01 77 1014.6
20260510184638 42 310 12.2 20.9 0.01 0.01 0.01 74 1014.5
20260510184135 44 274 1.7 8.7 0.01 0.01 0.01 75 1014.1
20260510183645 43 268 6.1 11.3 0.01 0.01 0.01 77 1014.1
20260510183637 44 279 3.5 8.7 0.01 0.01 0.01 77 1014.1
20260510182634 43 274 5.2 13.9 0.01 0.01 0.01 77 1014.0
20260510182132 43 282 7.0 13.9 0.01 0.01 0.01 74 1013.9
20260510181634 44 260 8.7 11.3 0.00 0.00 0.00 72 1013.7
20260510181131 44 220 6.1 11.3 0.00 0.00 0.00 74 1013.6
20260510180904 44 302 7.8 11.3 0.00 0.00 0.00 74 1013.6
20260510180131 43 239 5.2 17.4 0.00 0.00 0.00 80 1013.7
20260510175630 43 230 5.2 17.4 0.00 0.00 0.00 75 1013.6
20260510175358 44 260 12.2 17.4 0.00 0.00 0.00 69 1013.7
20260510174637 45 241 7.0 11.3 0.00 0.00 0.00 69 1013.3
20260510174629 44 241 8.7 13.9 0.00 0.00 0.00 66 1013.5
20260510173626 45 286 8.7 9.6 0.00 0.00 0.00 66 1013.3
20260510173124 45 257 5.2 8.7 0.00 0.00 0.00 67 1013.3
20260510172625 45 251 5.2 8.7 0.00 0.00 0.00 71 1013.2
20260510172123 44 250 5.2 8.7 0.00 0.00 0.00 71 1013.3
20260510171623 44 251 3.5 9.6 0.00 0.00 0.00 73 1013.3
20260510171120 44 202 6.1 9.6 0.00 0.00 0.00 72 1013.4
20260510170622 44 215 7.0 13.0 0.00 0.00 0.00 71 1013.4
20260510170119 44 302 5.2 13.0 0.00 0.00 0.00 71 1013.4
20260510165620 44 232 6.1 12.2 0.00 0.00 0.00 71 1013.4
20260510165350 44 293 2.6 9.6 0.00 0.00 0.00 70 1013.3
20260510164620 44 341 5.2 9.6 0.00 0.00 0.00 70 1013.2
20260510164116 44 331 5.2 9.6 0.00 0.00 0.00 69 1013.2
20260510163618 44 1 5.2 8.7 0.00 0.00 0.00 68 1013.2
20260510163117 45 338 5.2 7.8 0.00 0.00 0.00 68 1013.1
20260510162616 45 300 5.2 11.3 0.00 0.00 0.00 64 1013.0
20260510162112 45 225 5.2 13.0 0.00 0.00 0.00 66 1012.9
20260510161612 44 230 7.8 15.6 0.00 0.00 0.00 70 1012.9
20260510161111 44 215 8.7 18.2 0.00 0.00 0.00 67 1012.9
20260510160611 44 247 12.2 18.2 0.00 0.00 0.00 68 1012.8
20260510160109 45 253 12.2 17.4 0.00 0.00 0.00 64 1012.9
20260510155611 46 272 8.7 13.0 0.00 0.00 0.00 57 1012.8
20260510155340 46 262 8.7 13.0 0.00 0.00 0.00 54 1012.8
20260510154609 46 270 9.6 12.2 0.00 0.00 0.00 57 1012.7
20260510154107 45 255 7.8 11.3 0.00 0.00 0.00 58 1012.7
20260510153841 45 319 7.0 11.3 0.00 0.00 0.00 57 1012.7
20260510153105 45 305 7.0 14.8 0.00 0.00 0.00 61 1012.6
20260510152608 44 295 7.8 14.8 0.00 0.00 0.00 62 1012.6
20260510152106 44 265 9.6 13.9 0.00 0.00 0.00 56 1012.5
20260510151604 44 319 7.8 13.9 0.00 0.00 0.00 59 1012.5
20260510151103 45 324 4.3 13.9 0.00 0.00 0.00 58 1012.5
20260510150604 44 307 6.1 14.8 0.00 0.00 0.00 62 1012.5
20260510150105 44 284 10.4 14.8 0.00 0.00 0.00 61 1012.4
20260510145600 44 310 7.8 13.9 0.00 0.00 0.00 61 1012.4
20260510145057 45 284 7.8 13.0 0.00 0.00 0.00 65 1012.3
20260510144558 44 317 8.7 13.0 0.00 0.00 0.00 62 1012.2
20260510144055 44 289 7.8 12.2 0.00 0.00 0.00 64 1012.2
20260510143829 44 262 6.1 12.2 0.00 0.00 0.00 66 1012.1
20260510143054 44 303 7.8 13.0 0.00 0.00 0.00 64 1012.1
20260510142557 44 288 7.8 13.0 0.00 0.00 0.00 66 1012.1
20260510142052 43 250 6.1 12.2 0.00 0.00 0.00 69 1012.0
20260510141825 44 286 6.1 12.2 0.00 0.00 0.00 68 1012.0
20260510141727 44 285 2.6 12.2 0.00 0.00 0.00 69 1011.9
20260510140555 43 265 7.8 11.3 0.00 0.00 0.00 68 1011.9
20260510140101 43 292 7.8 14.8 0.00 0.00 0.00 71 1011.7
20260510135551 42 336 7.8 14.8 0.00 0.00 0.00 70 1011.7
20260510135048 43 271 7.0 13.9 0.00 0.00 0.00 73 1011.6
20260510134602 42 272 7.0 13.9 0.00 0.00 0.00 72 1011.6
20260510134047 43 278 5.2 12.2 0.00 0.00 0.00 72 1011.6
20260510133547 42 324 3.5 12.2 0.00 0.00 0.00 75 1011.6
20260510133045 42 291 9.6 12.2 0.00 0.00 0.00 76 1011.5
20260510132546 42 306 4.3 12.2 0.00 0.00 0.00 76 1011.5
20260510132043 42 267 7.8 12.2 0.00 0.00 0.00 77 1011.4
20260510131545 42 292 4.3 9.6 0.00 0.00 0.00 78 1011.4
20260510131041 41 306 6.1 9.6 0.00 0.00 0.00 76 1011.5
20260510130543 41 300 7.0 12.2 0.00 0.00 0.00 76 1011.4
20260510130052 42 288 7.0 12.2 0.00 0.00 0.00 79 1011.3
20260510125544 41 295 6.1 11.3 0.00 0.00 0.00 79 1011.2
20260510125040 41 307 6.1 11.3 0.00 0.00 0.00 78 1011.2
20260510124539 41 312 5.2 11.3 0.00 0.00 0.00 78 1011.1
20260510124309 41 303 6.1 11.3 0.00 0.00 0.00 80 1011.1
20260510123538 41 306 7.0 11.3 0.00 0.00 0.00 79 1011.0
20260510123306 40 306 6.1 11.3 0.00 0.00 0.00 80 1011.0
20260510122807 40 291 7.8 11.3 0.00 0.00 0.00 79 1011.0
20260510122031 41 288 5.2 12.2 0.00 0.00 0.00 81 1010.9
20260510121531 40 285 6.1 13.0 0.00 0.00 0.00 80 1010.9
20260510121029 40 286 7.8 13.0 0.00 0.00 0.00 80 1010.9
20260510120532 40 316 7.0 11.3 0.00 0.00 0.00 81 1010.8
20260510120029 40 300 7.0 11.3 0.00 0.00 0.00 83 1010.8
20260510115529 40 278 5.2 11.3 0.00 0.00 0.00 84 1010.8
20260510115028 39 289 4.3 9.6 0.00 0.00 0.00 84 1010.6
20260510114527 39 286 5.2 11.3 0.00 0.00 0.00 84 1010.5
20260510114024 39 320 6.1 11.3 0.00 0.00 0.00 84 1010.4
20260510113526 39 305 6.1 13.0 0.00 0.00 0.00 84 1010.3
20260510113024 39 302 7.8 13.0 0.00 0.00 0.00 84 1010.2
20260510112524 38 317 8.7 14.8 0.00 0.00 0.00 85 1010.2
20260510112021 38 282 7.0 14.8 0.00 0.00 0.00 87 1010.2
20260510111530 38 279 6.1 10.4 0.00 0.00 0.00 90 1010.0
20260510111522 38 284 9.6 13.9 0.00 0.00 0.00 87 1010.0
20260510110520 38 306 7.0 8.7 0.00 0.00 0.00 91 1009.9
20260510110019 38 271 7.0 8.7 0.00 0.00 0.00 91 1009.7
20260510105519 38 253 4.3 10.4 0.00 0.00 0.00 91 1009.6
20260510105016 38 267 3.5 11.3 0.00 0.00 0.00 91 1009.5
20260510104517 38 262 7.8 11.3 0.00 0.00 0.00 91 1009.3
20260510104016 38 261 7.8 11.3 0.00 0.00 0.00 91 1009.1
20260510103515 38 278 5.2 11.3 0.00 0.00 0.00 91 1009.0
20260510103012 38 268 4.3 9.6 0.00 0.00 0.00 90 1008.9
20260510102514 38 261 7.0 9.6 0.00 0.00 0.00 90 1008.8
20260510102014 38 225 6.1 9.6 0.00 0.00 0.00 90 1008.7
20260510101512 38 284 7.0 13.9 0.00 0.00 0.00 90 1008.5
20260510101240 38 288 7.8 13.9 0.00 0.00 0.00 90 1008.4
20260510100510 38 295 8.7 12.2 0.00 0.00 0.00 90 1008.2
20260510100008 38 274 6.1 9.6 0.00 0.00 0.00 90 1008.1
20260510095510 38 291 5.2 9.6 0.00 0.00 0.00 90 1008.1
20260510095006 38 286 5.2 11.3 0.00 0.00 0.00 90 1008.0
20260510094508 38 284 6.1 11.3 0.00 0.00 0.00 90 1007.9
20260510094006 38 268 6.1 10.4 0.00 0.00 0.00 90 1007.8
20260510093507 38 285 5.2 12.2 0.00 0.00 0.00 89 1007.7
20260510093002 39 295 5.2 12.2 0.00 0.00 0.00 89 1007.8
20260510092505 38 285 8.7 13.0 0.00 0.00 0.00 89 1007.8
20260510092001 39 292 6.1 13.0 0.00 0.00 0.00 89 1007.8
20260510091501 39 329 6.1 13.0 0.00 0.00 0.00 90 1007.6
20260510091001 39 289 5.2 13.0 0.00 0.00 0.00 90 1007.5
20260510090502 38 286 7.0 11.3 0.00 0.00 0.00 90 1007.5
20260510085959 38 299 7.0 11.3 0.00 0.00 0.00 90 1007.4
20260510085458 38 295 7.0 9.6 0.00 0.00 0.00 90 1007.3
20260510085226 39 265 5.2 9.6 0.00 0.00 0.00 90 1007.2
20260510084457 39 267 5.2 8.7 0.00 0.00 0.00 90 1007.2
20260510083956 39 284 6.1 11.3 0.00 0.00 0.00 90 1007.1
20260510083455 39 284 5.2 11.3 0.00 0.00 0.00 90 1007.1
20260510082954 38 285 4.3 8.7 0.00 0.00 0.00 91 1007.0
20260510082453 39 293 6.1 9.6 0.00 0.00 0.00 90 1006.9
20260510082223 39 298 5.2 9.6 0.00 0.00 0.00 90 1006.9
20260510081453 39 241 4.3 11.3 0.00 0.00 0.00 89 1006.8
20260510080950 39 293 7.0 11.3 0.00 0.00 0.00 89 1006.6
20260510080502 39 302 6.1 9.6 0.00 0.00 0.00 89 1006.6
20260510075947 39 292 6.1 9.6 0.00 0.00 0.00 89 1006.5
20260510075450 39 281 7.8 10.4 0.00 0.00 0.00 89 1006.4
20260510074949 39 268 7.8 10.4 0.00 0.00 0.00 89 1006.3
20260510074449 39 291 7.8 10.4 0.00 0.00 0.00 89 1006.3
20260510073945 39 285 5.2 11.3 0.00 0.00 0.00 89 1006.3
20260510073446 39 310 5.2 11.3 0.00 0.00 0.00 89 1006.1
20260510072943 39 268 5.2 10.4 0.00 0.00 0.00 90 1006.1
20260510072715 39 293 7.0 10.4 0.00 0.00 0.00 90 1006.0
20260510071941 39 320 4.3 11.3 0.00 0.00 0.00 90 1005.9
20260510071442 39 292 7.8 13.0 0.00 0.00 0.00 90 1005.9
20260510070939 39 274 7.8 13.0 0.00 0.00 0.00 90 1005.9
20260510070441 39 289 6.1 13.9 0.00 0.00 0.00 91 1005.8
20260510065938 39 296 8.7 13.9 0.00 0.00 0.00 91 1005.8
20260510065438 39 284 6.1 11.3 0.00 0.00 0.00 91 1005.8
20260510064936 39 284 7.8 10.4 0.00 0.00 0.00 91 1005.7
20260510064437 39 315 5.2 12.2 0.00 0.00 0.00 91 1005.6
20260510063935 39 306 7.0 13.0 0.00 0.00 0.00 91 1005.5
20260510063438 39 285 9.6 13.0 0.00 0.00 0.00 90 1005.5
20260510063204 39 295 8.7 15.6 0.00 0.00 0.00 90 1005.4
20260510062435 39 270 8.7 15.6 0.00 0.00 0.00 90 1005.4
20260510061931 39 271 7.8 15.6 0.00 0.00 0.00 90 1005.3
20260510061432 39 272 10.4 15.6 0.00 0.00 0.00 90 1005.3
20260510060930 40 261 8.7 13.0 0.00 0.00 0.00 90 1005.2
20260510060431 39 271 7.8 11.3 0.00 0.00 0.00 91 1005.2
20260510055927 40 275 8.7 11.3 0.00 0.00 0.00 91 1005.1
20260510055429 39 302 7.0 13.0 0.00 0.00 0.00 91 1005.0
20260510054926 40 289 8.7 13.0 0.00 0.00 0.00 91 1004.9
20260510054659 40 240 6.1 10.4 0.00 0.00 0.00 90 1004.9
20260510053924 40 278 7.0 13.0 0.00 0.00 0.00 90 1004.8
20260510053427 40 258 6.1 13.0 0.00 0.00 0.00 90 1004.6
20260510052935 40 288 6.1 14.8 0.00 0.00 0.00 90 1004.4
20260510052923 40 295 8.7 13.0 0.00 0.00 0.00 90 1004.5
20260510051925 40 277 7.8 16.5 0.00 0.00 0.00 89 1004.3
20260510051423 40 303 7.0 17.4 0.00 0.00 0.00 89 1004.2
20260510050919 40 285 11.3 17.4 0.00 0.00 0.00 89 1004.1
20260510050421 40 300 10.4 16.5 0.00 0.00 0.00 90 1004.0
20260510050149 40 330 12.2 16.5 0.00 0.00 0.00 89 1003.9
20260510045419 41 289 10.4 16.5 0.00 0.00 0.00 90 1003.8
20260510044916 41 274 7.8 15.6 0.00 0.00 0.00 90 1003.7
20260510044417 41 319 7.0 15.6 0.00 0.00 0.00 90 1003.6
20260510043914 41 288 7.8 17.4 0.00 0.00 0.00 90 1003.4
20260510043416 42 284 7.8 17.4 0.00 0.00 0.00 91 1003.3
20260510042914 42 277 9.6 16.5 0.00 0.00 0.00 91 1003.3
20260510042414 42 312 7.0 16.5 0.00 0.00 0.00 91 1003.2
20260510041911 42 300 9.6 16.5 0.00 0.00 0.00 91 1003.2
20260510041412 42 309 8.7 14.8 0.00 0.00 0.00 91 1003.0
20260510040909 42 292 8.7 14.8 0.00 0.00 0.00 92 1002.9
20260510040413 42 307 6.1 14.8 0.00 0.00 0.00 92 1002.8
20260510035923 42 305 8.7 15.6 0.00 0.31 0.31 92 1002.8
20260510035653 42 288 7.8 14.8 0.00 0.31 0.31 92 1002.6
20260510034922 42 261 7.0 12.2 0.00 0.31 0.31 92 1002.6
20260510034654 42 253 7.8 13.0 0.00 0.31 0.31 92 1002.4
20260510034153 42 282 8.7 13.0 0.00 0.31 0.31 91 1002.3
20260510034057 42 267 8.7 13.9 0.00 0.31 0.31 91 1002.3
20260510032918 42 285 7.8 13.9 0.00 0.31 0.31 91 1002.2
20260510032418 42 262 10.4 13.0 0.00 0.31 0.31 90 1002.1
20260510031929 42 270 7.8 13.9 0.00 0.31 0.31 90 1002.1
20260510031415 42 274 6.1 13.9 0.00 0.31 0.31 90 1002.0
20260510030918 43 265 6.1 13.9 0.00 0.31 0.31 91 1001.9
20260510030415 42 277 7.8 14.8 0.00 0.31 0.31 91 1001.8
20260510030145 42 246 9.6 14.8 0.00 0.31 0.31 92 1001.8
20260510030045 42 264 8.7 14.8 0.00 0.31 0.31 94 1001.6
20260510024912 42 258 7.0 9.6 0.00 0.31 0.31 94 1001.6
20260510024411 42 257 6.1 8.7 0.00 0.31 0.31 94 1001.5
20260510023911 43 267 3.5 7.0 0.00 0.31 0.31 94 1001.5
20260510023409 43 254 5.2 7.0 0.00 0.31 0.31 94 1001.5
20260510022909 43 261 3.5 7.0 0.00 0.31 0.31 94 1001.5
20260510022408 43 219 4.3 7.0 0.00 0.31 0.31 94 1001.5
20260510021908 43 261 3.5 7.0 0.00 0.31 0.31 94 1001.3
20260510021405 43 247 4.3 7.0 0.00 0.31 0.31 94 1001.2
20260510020905 43 257 3.5 7.0 0.00 0.31 0.31 94 1001.1
20260510020637 43 251 3.5 7.0 0.00 0.31 0.31 94 1001.0
20260510015903 43 274 4.3 7.0 0.01 0.31 0.31 94 1001.0
20260510015403 43 243 2.6 6.1 0.01 0.31 0.31 94 1001.0
20260510014902 43 270 3.5 6.1 0.01 0.31 0.31 94 1000.9
20260510014401 43 227 4.3 6.1 0.01 0.31 0.31 93 1000.8
20260510013901 43 264 2.6 5.2 0.01 0.31 0.31 93 1000.5
20260510013357 43 278 3.5 5.2 0.01 0.31 0.31 93 1000.6
20260510012854 43 299 2.6 7.8 0.02 0.31 0.31 93 1000.6
20260510012624 43 286 6.1 9.6 0.02 0.31 0.31 93 1000.5
20260510012122 43 278 6.1 9.6 0.02 0.31 0.31 93 1000.5
20260510012020 44 279 4.3 7.0 0.02 0.31 0.31 93 1000.3
20260510010851 44 279 3.5 7.0 0.02 0.31 0.31 92 1000.0
20260510010351 44 310 1.7 8.7 0.02 0.31 0.31 92 999.9
20260510005850 44 286 3.5 11.3 0.01 0.30 0.30 92 999.9
20260510005349 44 298 6.1 11.3 0.01 0.30 0.30 92 999.9
20260510004847 44 291 5.2 15.6 0.01 0.30 0.30 92 999.8
20260510004348 44 313 9.6 21.7 0.01 0.30 0.30 92 999.8
20260510004121 44 285 8.7 21.7 0.02 0.30 0.30 93 999.7
20260510003347 44 288 9.6 20.9 0.01 0.29 0.30 93 999.6
20260510002846 44 305 7.8 13.9 0.01 0.29 0.29 95 999.5
20260510002344 44 282 4.3 7.8 0.02 0.29 0.29 95 999.1
20260510001842 44 225 3.5 7.8 0.03 0.29 0.29 95 998.8
20260510001343 44 254 3.5 6.1 0.04 0.29 0.29 95 998.6
20260510001113 44 201 3.5 6.1 0.06 0.29 0.29 95 998.5
20260510000341 44 217 2.6 6.1 0.09 0.29 0.29 95 998.4
20260509235840 44 253 1.7 6.1 0.09 0.29 0.29 95 998.5
20260509235338 44 225 3.5 7.8 0.09 0.29 0.29 95 998.4
20260509234839 44 282 1.7 7.8 0.09 0.29 0.29 95 998.4
20260509234338 44 243 4.3 11.3 0.10 0.29 0.29 94 998.6
20260509233837 44 274 5.2 13.9 0.09 0.28 0.28 94 998.6
20260509233336 44 267 7.0 13.9 0.09 0.28 0.28 94 998.4
20260509232838 43 277 7.8 16.5 0.09 0.28 0.28 94 998.5
20260509232333 43 295 8.7 26.9 0.08 0.27 0.27 94 998.4
20260509231833 44 277 8.7 26.9 0.07 0.26 0.26 93 998.6
20260509231607 45 250 14.8 26.1 0.06 0.25 0.25 93 998.8
20260509230832 47 285 12.2 18.2 0.05 0.23 0.23 95 998.6
20260509230601 48 246 8.7 13.9 0.02 0.20 0.20 95 997.7
20260509230502 47 222 6.1 12.2 0.02 0.20 0.20 95 997.6
20260509225331 48 229 7.0 12.2 0.02 0.20 0.20 95 997.5
20260509224828 48 254 4.3 12.2 0.02 0.20 0.20 95 997.4
20260509224328 47 267 6.1 13.9 0.01 0.19 0.19 95 997.3
20260509223827 48 248 6.1 13.9 0.01 0.19 0.19 95 997.2
20260509223325 47 253 9.6 13.9 0.01 0.19 0.19 95 997.1
20260509222826 48 261 7.0 12.2 0.01 0.19 0.19 95 997.0
20260509222324 47 264 7.8 11.3 0.01 0.19 0.19 95 996.9
20260509221824 47 230 7.0 10.4 0.02 0.19 0.19 95 996.9
20260509221340 47 248 6.1 10.4 0.03 0.19 0.19 95 996.8
20260509220821 48 257 3.5 7.8 0.02 0.18 0.18 95 996.7
20260509220555 48 271 3.5 7.8 0.02 0.18 0.18 95 996.7
20260509215821 48 257 5.2 7.8 0.02 0.18 0.18 95 996.6
20260509215320 48 241 3.5 5.2 0.03 0.18 0.18 94 996.4
20260509214819 48 244 3.5 5.2 0.03 0.18 0.18 94 996.4
20260509214320 48 243 0.0 6.1 0.03 0.18 0.18 94 996.2
20260509213815 48 265 3.5 6.1 0.03 0.18 0.18 94 996.4
20260509213314 48 271 3.5 9.6 0.03 0.18 0.18 94 996.3
20260509213043 48 220 1.7 9.6 0.03 0.18 0.18 93 996.4
20260509212311 48 199 3.5 9.6 0.03 0.18 0.18 93 996.5
20260509211811 48 239 3.5 5.2 0.02 0.17 0.17 93 996.5
20260509211545 48 225 0.0 4.3 0.01 0.16 0.16 93 996.6
20260509210801 48 215 0.9 5.2 0.01 0.16 0.16 93 996.5
20260509210306 47 202 0.0 7.8 0.01 0.16 0.16 93 996.6
20260509205749 47 240 0.9 7.8 0.01 0.16 0.16 93 996.5
20260509205249 47 120 1.7 7.0 0.00 0.15 0.15 92 996.5
20260509204758 47 143 0.0 5.2 0.00 0.15 0.15 93 996.5
20260509204750 47 253 0.0 4.3 0.00 0.15 0.15 93 996.5